TimeEST,TemperatureF,Dew PointF,Humidity,Sea Level PressureIn,VisibilityMPH,Wind Direction,Wind SpeedMPH,Gust SpeedMPH,PrecipitationIn,Events,Conditions,WindDirDegrees,DateUTC
12:53 AM,30.0,25.0,82,30.17,10.0,Calm,Calm,-,N/A,,Clear,0,2013-01-21 05:53:00
1:53 AM,30.0,25.0,82,30.17,10.0,Calm,Calm,-,N/A,,Clear,0,2013-01-21 06:53:00
2:53 AM,28.9,24.1,82,30.16,10.0,Calm,Calm,-,N/A,,Clear,0,2013-01-21 07:53:00
3:53 AM,28.9,25.0,85,30.15,10.0,Calm,Calm,-,N/A,,Clear,0,2013-01-21 08:53:00
4:53 AM,28.0,24.1,85,30.15,10.0,Calm,Calm,-,N/A,,Clear,0,2013-01-21 09:53:00
5:53 AM,27.0,24.1,89,30.14,10.0,Calm,Calm,-,N/A,,Clear,0,2013-01-21 10:53:00
6:53 AM,27.0,23.0,85,30.16,10.0,Calm,Calm,-,N/A,,Clear,0,2013-01-21 11:53:00
7:53 AM,27.0,23.0,85,30.18,10.0,Calm,Calm,-,N/A,,Clear,0,2013-01-21 12:53:00
8:37 AM,26.6,24.8,93,30.15,1.0,Calm,Calm,-,N/A,,Mist,0,2013-01-21 13:37:00
8:44 AM,28.4,26.6,93,30.15,0.8,Calm,Calm,-,N/A,,Mist,0,2013-01-21 13:44:00
8:46 AM,28.4,26.6,93,30.15,1.5,Calm,Calm,-,N/A,,Partly Cloudy,0,2013-01-21 13:46:00
8:48 AM,28.4,26.6,93,30.15,3.0,Calm,Calm,-,N/A,,Partly Cloudy,0,2013-01-21 13:48:00
8:53 AM,30.0,26.1,85,30.20,8.0,Calm,Calm,-,N/A,,Partly Cloudy,0,2013-01-21 13:53:00
9:53 AM,37.0,26.1,65,30.22,10.0,Calm,Calm,-,N/A,,Clear,0,2013-01-21 14:53:00
10:53 AM,41.0,16.0,36,30.22,10.0,Variable,3.5,-,N/A,,Clear,0,2013-01-21 15:53:00
11:53 AM,45.0,12.9,27,30.20,10.0,Variable,6.9,-,N/A,,Clear,0,2013-01-21 16:53:00
12:53 PM,44.1,10.0,25,30.19,10.0,WSW,12.7,20.7,N/A,,Clear,250,2013-01-21 17:53:00
1:53 PM,44.1,8.1,23,30.17,10.0,West,10.4,19.6,N/A,,Clear,260,2013-01-21 18:53:00
2:53 PM,45.0,9.0,23,30.16,10.0,West,13.8,19.6,N/A,,Clear,270,2013-01-21 19:53:00
3:53 PM,45.0,10.9,25,30.17,10.0,West,8.1,18.4,N/A,,Clear,280,2013-01-21 20:53:00
4:53 PM,42.1,12.0,29,30.18,10.0,WSW,12.7,20.7,N/A,,Clear,240,2013-01-21 21:53:00
5:53 PM,39.0,10.9,32,30.19,10.0,West,10.4,18.4,N/A,,Clear,270,2013-01-21 22:53:00
6:53 PM,37.0,10.9,34,30.21,10.0,West,10.4,16.1,N/A,,Clear,260,2013-01-21 23:53:00
7:53 PM,35.1,9.0,34,30.23,10.0,WSW,11.5,19.6,N/A,,Clear,250,2013-01-22 00:53:00
8:53 PM,33.1,8.1,35,30.24,10.0,WSW,5.8,-,N/A,,Clear,250,2013-01-22 01:53:00
9:53 PM,32.0,8.1,37,30.26,10.0,West,4.6,-,N/A,,Clear,260,2013-01-22 02:53:00
10:53 PM,30.0,8.1,40,30.27,10.0,Calm,Calm,-,N/A,,Clear,0,2013-01-22 03:53:00
11:53 PM,28.9,8.1,41,30.27,10.0,Calm,Calm,-,N/A,,Clear,0,2013-01-22 04:53:00